AirNav   ProFlight Series 2 Aviation Headset
 
 897 users online  

2LA7 Costello Airport
Oak Grove, Louisiana, USA

GOING TO OAK GROVE?


FAA INFORMATION EFFECTIVE 16 JULY 2020

Location

FAA Identifier: 2LA7
Lat/Long: 32-57-57.0750N 091-25-33.1050W
32-57.951250N 091-25.551750W
32.9658542,-91.4258625
(estimated)
SURVEYED
Elevation: 100.1 ft. / 31 m (estimated)
Variation: 03E (1990)
From city: 7 miles NW of OAK GROVE, LA
Time zone: UTC -5 (UTC -6 during Standard Time)
Zip code: 71263

Airport Operations

Airport use: Private use. Permission required prior to landing
Activation date: 05/1993
Control tower: no
ARTCC: MEMPHIS CENTER
FSS: DE RIDDER FLIGHT SERVICE STATION
NOTAMs facility: FDC (NOTAM-D service not available)
Attendance: UNATNDD
Wind indicator: yes
Segmented circle: no
Lights: ACTVT MIRL RY 01/19 - 122.9.
Beacon: white-green-yellow (heliport)
ACTVT ROTG BCN -122.9

Nearby radio navigation aids

VOR radial/distance  VOR name  Freq  Var
MONr154/38.6MONTICELLO VOR/DME111.6004E

 
NDB name  Hdg/Dist  Freq  Var  ID
BASTROP058/26.332903EBQP -... --.- .--.
METCALF220/35.435901WMTQ -- - --.-

Airport Services

Runway Information

Runway 1/19

Dimensions: 3293 x 25 ft. / 1004 x 8 m
Surface: asphalt
Runway edge lights: medium intensity
RUNWAY 1  RUNWAY 19
Latitude: 32-57.684167N32-58.218333N
Longitude: 091-25.609833W091-25.493667W
Elevation: 99.5 ft.100.1 ft.
Traffic pattern: leftleft
Runway end identifier lights: yesyes
Touchdown point: yes, no lightsyes, no lights
Obstructions: 25 ft. bldg, 100 ft. from runway25 ft. bldg, 25 ft. from runway

Airport Ownership and Management from official FAA records

Ownership: Privately-owned
Owner: HEBER COSTELLO CONSTRUCTION
609 COSTELLO RD
OAK GROVE, LA 71263
Phone 318-428-9316
Manager: SCOTT COSTELLO
609 COSTELLO ROAD
OAK GROVE, LA 71263
Phone 318-428-9316

Airport Operational Statistics

Aircraft based on the field: 1
Single engine airplanes: 1
    

Additional Remarks

FOR CD CTC MEMPHIS ARTCC AT 901-368-8453.

Instrument Procedures

There are no published instrument procedures at 2LA7.

Some nearby airports with instrument procedures:

M32 - Lake Village Municipal Airport (24 nm N)
KBQP - Morehouse Memorial Airport (26 nm SW)
KCRT - Z M Jack Stell Field Airport (26 nm NW)
M79 - John H Hooks Jr Memorial Airport (34 nm SW)
KGLH - Greenville Mid-Delta Airport (38 nm NE)
 
Loc | Ops | Rwys | IFR | FBO | Links
Com | Nav | Svcs | Stats | Notes
Area around 2LA7 (Costello Airport)
 
Road maps at: MapQuest Bing Google
 
Aerial photo
No photo
 
Sectional chart

 
Airport distance calculator
Flying to Costello Airport? Find the distance to fly.

From to 2LA7

Sunrise and sunset
Times for 11-Aug-2020
 Local
(UTC-5)
 Zulu
(UTC)
Morning civil twilight06:0111:01
Sunrise06:2811:28
Sunset19:5400:54
Evening civil twilight20:2001:20

Current date and time
Zulu (UTC)  12-Aug-2020 03:34:47
Local (UTC-5)  11-Aug-2020 22:34:47
 
METAR
KBQP 
26nm SW 
120315Z AUTO 08004KT 10SM CLR 26/22 A2999 RMK AO2 T02600218 TSNO
KGLH 
39nm NE 
120253Z AUTO 06006KT 10SM CLR 24/21 A2998 RMK AO2 SLP156 T02390211 50020
KMLU 
41nm SW 
120253Z AUTO 02006KT 10SM CLR 27/22 A2998 RMK AO2 SLP150 T02670222 53016
KTVR 
42nm SE 
120253Z AUTO 18003KT 10SM BKN075 27/23 A2998 RMK AO2 SLP156 T02670228 53018
KLLQ 
43nm N 
120253Z AUTO 11005KT 10SM CLR 24/22 A2998 RMK AO2 SLP148 T02390222 58001
TAF
KGLH 
39nm NE 
111759Z 1118/1218 23005KT P6SM FEW040 FM111900 24006KT P6SM VCTS SCT035CB BKN070 FM120100 27006KT P6SM SCT060 FM120200 30008KT P6SM SCT070 FM120500 33006KT P6SM BKN100
KMLU 
41nm SW 
111720Z 1118/1218 22006KT P6SM SCT040 FM112100 19006KT P6SM SCT050 FM120300 16004KT P6SM SCT250 FM120900 33003KT 4SM BR BKN250 FM121200 23005KT P6SM BKN250
KLLQ 
43nm N 
120219Z 1202/1224 VRB06KT P6SM SCT100 BKN250 FM121100 VRB05KT 6SM -SHRA VCTS SCT025 BKN050CB FM121800 20006KT P6SM VCTS BKN050CB
NOTAMs
Click for the latest NOTAMs
NOTAMs are issued by the DoD/FAA and will open in a separate window not controlled by AirNav.

 

 
 

Would you like to see your business listed on this page?

 If your business provides an interesting product or service to pilots, flight crews, aircraft, or users of the Costello Airport, you should consider listing it here.  To start the listing process, click on the button below
 
Add a business
 

Other Pages about Costello Airport

Update a link
 
Copyright © AirNav, LLC. All rights reserved. Privacy Policy  Contact